DW0749 Weather Reports


Display with metric or nautical units.
time (UTC)temp
F
wind
direction
speed
MPH
gust
MPH
rain 1hr
in
rain 24hr
in
rain mn
in
humidity
%
barometer
mb
20210729060844 76 339 0.0 0.0 0.00 0.00 0.00 45 1014.5
20210729060342 75 340 0.0 0.0 0.00 0.00 0.00 46 1014.4
20210729055842 74 340 0.0 0.0 0.00 0.00 0.00 47 1014.4
20210729055337 72 340 0.0 0.0 0.00 0.00 0.00 49 1014.4
20210729054834 73 340 0.0 0.0 0.00 0.00 0.00 48 1014.4
20210729054332 73 340 0.0 0.0 0.00 0.00 0.00 48 1014.4
20210729053831 73 340 0.0 0.0 0.00 0.00 0.00 47 1014.5
20210729053330 73 340 0.0 0.0 0.00 0.00 0.00 47 1014.5
20210729052825 74 340 0.0 0.0 0.00 0.00 0.00 46 1014.3
20210729052323 74 340 0.0 0.0 0.00 0.00 0.00 45 1014.3
20210729051824 74 340 0.0 0.0 0.00 0.00 0.00 45 1014.4
20210729051319 74 340 0.0 0.0 0.00 0.00 0.00 45 1014.4
20210729050818 74 340 0.0 0.0 0.00 0.00 0.00 46 1014.3
20210729050312 73 340 0.0 0.0 0.00 0.00 0.00 47 1014.4
20210729045810 73 340 0.0 0.0 0.00 0.00 0.00 46 1014.4
20210729045312 73 340 0.0 0.0 0.00 0.00 0.00 46 1014.4
20210729044811 73 340 0.0 0.0 0.00 0.00 0.00 47 1014.2
20210729044310 73 340 0.0 0.0 0.00 0.00 0.00 47 1014.3
20210729043801 74 340 0.0 0.0 0.00 0.00 0.00 47 1014.2
20210729043259 74 340 0.0 0.0 0.00 0.00 0.00 48 1014.3
20210729042759 74 340 0.0 0.0 0.00 0.00 0.00 48 1014.3
20210729042258 74 340 0.0 0.0 0.00 0.00 0.00 49 1014.3
20210729041758 75 340 0.0 0.0 0.00 0.00 0.00 48 1014.3
20210729041249 75 340 0.0 0.0 0.00 0.00 0.00 47 1014.2
20210729040749 75 340 0.0 0.0 0.00 0.00 0.00 47 1014.1
20210729040248 76 340 0.0 0.0 0.00 0.00 0.00 47 1014.1
20210729035748 76 340 0.0 0.0 0.00 0.00 0.00 46 1014.1
20210729035250 77 340 0.0 0.0 0.00 0.00 0.00 43 1014.2
20210729034749 77 340 0.0 0.0 0.00 0.00 0.00 42 1014.1
20210729034247 78 340 0.0 0.0 0.00 0.00 0.00 43 1014.2
20210729033747 78 340 0.0 0.0 0.00 0.00 0.00 43 1014.2
20210729033246 79 340 0.0 0.0 0.00 0.00 0.00 43 1014.1
20210729032747 79 340 0.0 0.0 0.00 0.00 0.00 42 1014.1
20210729032246 79 340 0.0 0.0 0.00 0.00 0.00 41 1014.3
20210729031747 80 340 0.0 0.0 0.00 0.00 0.00 41 1014.3
20210729031240 80 340 0.0 0.0 0.00 0.00 0.00 40 1014.3
20210729030739 80 340 0.0 0.0 0.00 0.00 0.00 40 1014.4
20210729030239 81 340 0.0 0.0 0.00 0.00 0.00 40 1014.3
20210729025738 81 340 0.0 0.0 0.00 0.00 0.00 39 1014.5
20210729025238 81 340 0.0 0.0 0.00 0.00 0.00 39 1014.3
20210729024739 81 340 0.0 0.0 0.00 0.00 0.00 39 1014.3
20210729024228 82 340 0.0 0.0 0.00 0.00 0.00 39 1014.3
20210729023727 82 340 0.0 0.0 0.00 0.00 0.00 38 1014.2
20210729023227 83 340 0.0 0.0 0.00 0.00 0.00 38 1014.3
20210729022727 83 340 0.0 0.0 0.00 0.00 0.00 38 1014.3
20210729022227 83 340 0.0 0.0 0.00 0.00 0.00 37 1014.3
20210729021721 83 50 0.0 0.0 0.00 0.00 0.00 37 1014.4
20210729021219 83 50 0.0 0.0 0.00 0.00 0.00 37 1014.4
20210729020717 83 55 0.0 0.0 0.00 0.00 0.00 38 1014.4
20210729020214 83 45 0.0 0.0 0.00 0.00 0.00 37 1014.4
20210729015714 83 42 0.0 0.0 0.00 0.00 0.00 37 1014.4
20210729015205 83 28 0.0 0.0 0.00 0.00 0.00 37 1014.4
20210729014704 83 153 0.0 3.0 0.00 0.00 0.00 37 1014.4
20210729014204 83 18 0.0 4.0 0.00 0.00 0.00 37 1014.5
20210729013700 84 38 0.0 4.0 0.00 0.00 0.00 37 1014.5
20210729013201 83 341 0.0 3.0 0.00 0.00 0.00 37 1014.5
20210729012655 84 52 0.0 3.0 0.00 0.00 0.00 37 1014.5
20210729012152 83 44 0.0 5.0 0.00 0.00 0.00 37 1014.6
20210729011653 83 44 0.0 5.0 0.00 0.00 0.00 37 1014.5
20210729011154 83 44 0.0 5.0 0.00 0.00 0.00 37 1014.7
20210729010653 83 355 0.0 4.0 0.00 0.00 0.00 36 1014.5
20210729010153 84 68 0.0 4.0 0.00 0.00 0.00 37 1014.7
20210729005649 83 344 0.0 4.0 0.00 0.00 0.00 36 1014.7
20210729005146 84 13 0.0 2.0 0.00 0.00 0.00 36 1014.7
20210729004647 84 29 0.0 2.0 0.00 0.00 0.00 36 1014.8
20210729004146 84 40 0.0 4.0 0.00 0.00 0.00 36 1014.9
20210729003646 84 113 0.0 4.0 0.00 0.00 0.00 36 1014.9
20210729003145 83 355 0.0 0.0 0.00 0.00 0.00 36 1015.0
20210729002634 84 340 0.0 1.0 0.00 0.00 0.00 36 1014.9
20210729002135 84 304 0.0 3.0 0.00 0.00 0.00 36 1015.0
20210729001638 84 63 0.0 5.0 0.00 0.00 0.00 36 1015.0
20210729001134 84 53 1.0 6.0 0.00 0.00 0.00 36 1015.1
20210729000635 83 5 1.0 6.0 0.00 0.00 0.00 37 1015.0
20210729000135 83 43 0.0 5.0 0.00 0.00 0.00 37 1015.1
20210728235624 84 51 0.0 5.0 0.00 0.00 0.00 37 1015.1
20210728235123 83 24 1.0 8.0 0.00 0.00 0.00 37 1015.1
20210728234620 84 28 1.0 8.0 0.00 0.00 0.00 37 1015.1
20210728234121 84 42 0.0 4.0 0.00 0.00 0.00 36 1015.3
20210728233620 84 30 0.0 4.0 0.00 0.00 0.00 36 1015.3
20210728233111 84 25 0.0 3.0 0.00 0.00 0.00 37 1015.2
20210728232614 84 56 0.0 3.0 0.00 0.00 0.00 37 1015.3
20210728232111 83 113 0.0 6.0 0.00 0.00 0.00 37 1015.4
20210728231613 84 33 1.0 7.0 0.00 0.00 0.00 38 1015.4
20210728231109 83 80 1.0 7.0 0.00 0.00 0.00 37 1015.4
20210728230606 83 28 1.0 5.0 0.00 0.00 0.00 38 1015.5
20210728230113 83 28 2.0 9.0 0.00 0.00 0.00 38 1015.7
20210728225601 83 51 2.0 9.0 0.00 0.00 0.00 38 1015.7
20210728225059 83 48 1.0 8.0 0.00 0.00 0.00 38 1015.7
20210728224558 84 30 0.0 7.0 0.00 0.00 0.00 38 1015.7
20210728224100 83 337 1.0 7.0 0.00 0.00 0.00 38 1016.0
20210728223555 83 61 1.0 7.0 0.00 0.00 0.00 39 1015.8
20210728223055 82 43 1.0 7.0 0.00 0.00 0.00 39 1015.9
20210728222555 82 88 2.0 7.0 0.00 0.00 0.00 40 1016.0
20210728222056 82 52 2.0 7.0 0.00 0.00 0.00 40 1016.0
20210728221555 82 24 1.0 6.0 0.00 0.00 0.00 39 1016.1
20210728221055 82 46 1.0 6.0 0.00 0.00 0.00 39 1016.2
20210728220554 83 52 1.0 5.0 0.00 0.00 0.00 37 1016.0
20210728220104 83 52 0.0 5.0 0.00 0.00 0.00 38 1016.1
20210728215551 82 75 1.0 7.0 0.00 0.00 0.00 38 1016.1
20210728215051 82 50 1.0 7.0 0.00 0.00 0.00 38 1016.1
20210728214551 82 85 1.0 6.0 0.00 0.00 0.00 39 1016.3
20210728214051 82 84 1.0 9.0 0.00 0.00 0.00 38 1016.3
20210728213549 82 52 1.0 9.0 0.00 0.00 0.00 38 1016.4
20210728213047 83 61 1.0 8.0 0.00 0.00 0.00 36 1016.4
20210728212547 83 69 1.0 8.0 0.00 0.00 0.00 38 1016.6
20210728212050 82 49 1.0 7.0 0.00 0.00 0.00 39 1016.4
20210728211547 83 15 1.0 7.0 0.00 0.00 0.00 37 1016.4
20210728211047 83 53 1.0 5.0 0.00 0.00 0.00 38 1016.6
20210728210546 83 54 1.0 5.0 0.00 0.00 0.00 36 1016.6
20210728210056 82 48 1.0 7.0 0.00 0.00 0.00 38 1016.6
20210728205542 82 40 0.0 7.0 0.00 0.00 0.00 38 1016.6
20210728205043 82 31 0.0 4.0 0.00 0.00 0.00 36 1016.7
20210728204543 82 51 0.0 7.0 0.00 0.00 0.00 37 1016.8
20210728204044 80 29 0.0 7.0 0.00 0.00 0.00 37 1016.7
20210728203541 82 49 0.0 8.0 0.00 0.00 0.00 36 1016.7
20210728203039 82 88 0.0 8.0 0.00 0.00 0.00 36 1016.8
20210728202539 82 38 0.0 7.0 0.00 0.00 0.00 37 1016.8
20210728202040 81 107 0.0 7.0 0.00 0.00 0.00 37 1016.8
20210728201539 82 73 0.0 5.0 0.00 0.00 0.00 36 1016.9
20210728201040 80 44 1.0 6.0 0.00 0.00 0.00 37 1017.0
20210728200539 80 33 1.0 7.0 0.00 0.00 0.00 38 1017.0
20210728200055 81 46 0.0 7.0 0.00 0.00 0.00 38 1017.0
20210728195537 81 21 0.0 4.0 0.00 0.00 0.00 38 1017.1
20210728195036 81 71 0.0 5.0 0.00 0.00 0.00 37 1017.1
20210728194533 81 24 0.0 5.0 0.00 0.00 0.00 36 1017.1
20210728194033 80 355 0.0 3.0 0.00 0.00 0.00 38 1017.0
20210728193533 80 29 0.0 5.0 0.00 0.00 0.00 38 1017.1
20210728193033 80 36 0.0 5.0 0.00 0.00 0.00 39 1017.1
20210728192536 79 43 0.0 4.0 0.00 0.00 0.00 39 1017.0
20210728192031 80 59 0.0 4.0 0.00 0.00 0.00 39 1017.0
20210728191524 79 34 0.0 3.0 0.00 0.00 0.00 40 1017.0
20210728191017 80 103 0.0 3.0 0.00 0.00 0.00 39 1017.3
20210728190507 79 47 0.0 4.0 0.00 0.00 0.00 41 1017.2
20210728190001 78 74 0.0 4.0 0.00 0.00 0.00 41 1017.2
20210728185453 78 40 0.0 3.0 0.00 0.00 0.00 41 1017.3
20210728184945 79 30 0.0 3.0 0.00 0.00 0.00 42 1017.3
20210728184440 77 72 0.0 5.0 0.00 0.00 0.00 43 1017.4
20210728183933 77 41 0.0 5.0 0.00 0.00 0.00 44 1017.4
20210728183423 78 59 0.0 5.0 0.00 0.00 0.00 43 1017.5
20210728182917 77 25 1.0 7.0 0.00 0.00 0.00 44 1017.5
20210728182404 76 39 1.0 7.0 0.00 0.00 0.00 44 1017.5
20210728181903 76 40 0.0 1.0 0.00 0.00 0.00 46 1017.5
20210728181403 78 11 0.0 5.0 0.00 0.00 0.00 46 1017.5
20210728180903 76 46 0.0 5.0 0.00 0.00 0.00 48 1017.4
20210728180403 77 41 0.0 4.0 0.00 0.00 0.00 47 1017.4
20210728175903 77 25 1.0 7.0 0.00 0.00 0.00 42 1017.5
20210728175403 76 72 1.0 7.0 0.00 0.00 0.00 41 1017.4
20210728174900 76 315 1.0 5.0 0.00 0.00 0.00 42 1017.5
20210728174358 76 337 0.0 5.0 0.00 0.00 0.00 43 1017.5
20210728173852 75 90 0.0 5.0 0.00 0.00 0.00 43 1017.5
20210728173352 76 338 1.0 7.0 0.00 0.00 0.00 44 1017.6
20210728172852 75 342 1.0 8.0 0.00 0.00 0.00 45 1017.5
20210728172351 75 64 1.0 8.0 0.00 0.00 0.00 44 1017.5
20210728171851 75 5 0.0 5.0 0.00 0.00 0.00 44 1017.6
20210728171351 74 323 0.0 8.0 0.00 0.00 0.00 47 1017.6
20210728170851 74 336 0.0 8.0 0.00 0.00 0.00 46 1017.6
20210728170351 73 18 0.0 5.0 0.00 0.00 0.00 49 1017.7
20210728165845 73 323 1.0 5.0 0.00 0.00 0.00 50 1017.7
20210728165346 72 319 0.0 5.0 0.00 0.00 0.00 51 1017.7
20210728164846 73 327 0.0 5.0 0.00 0.00 0.00 49 1017.7
20210728164346 73 326 0.0 5.0 0.00 0.00 0.00 49 1017.8
20210728163845 73 306 1.0 8.0 0.00 0.00 0.00 50 1017.8
20210728163345 73 346 0.0 8.0 0.00 0.00 0.00 51 1017.8
20210728162845 73 337 1.0 7.0 0.00 0.00 0.00 52 1017.7
20210728162335 72 320 1.0 7.0 0.00 0.00 0.00 52 1017.7
20210728161835 71 346 0.0 6.0 0.00 0.00 0.00 52 1017.9
20210728161335 72 347 0.0 5.0 0.00 0.00 0.00 53 1017.8
20210728160833 71 316 0.0 5.0 0.00 0.00 0.00 52 1017.6
20210728160333 70 21 0.0 0.0 0.00 0.00 0.00 55 1017.6
20210728155827 70 350 0.0 4.0 0.00 0.00 0.00 54 1017.7
20210728155327 70 325 0.0 4.0 0.00 0.00 0.00 57 1017.8
20210728154824 69 332 0.0 4.0 0.00 0.00 0.00 57 1017.7
20210728154321 69 324 0.0 2.0 0.00 0.00 0.00 58 1017.7
20210728153822 69 324 0.0 2.0 0.00 0.00 0.00 60 1017.6
20210728153316 69 355 0.0 0.0 0.00 0.00 0.00 61 1017.8
20210728152814 68 328 0.0 0.0 0.00 0.00 0.00 62 1017.6
20210728152316 67 326 0.0 0.0 0.00 0.00 0.00 63 1017.6
20210728151809 67 342 0.0 0.0 0.00 0.00 0.00 64 1017.6
20210728151309 68 348 0.0 0.0 0.00 0.00 0.00 63 1017.6
20210728150800 68 305 0.0 1.0 0.00 0.00 0.00 62 1017.6
20210728150259 68 90 0.0 1.0 0.00 0.00 0.00 62 1017.6
20210728145759 67 44 0.0 0.0 0.00 0.00 0.00 63 1017.6
20210728145258 67 346 0.0 0.0 0.00 0.00 0.00 63 1017.6
20210728144759 67 347 0.0 0.0 0.00 0.00 0.00 64 1017.5
20210728144250 67 339 0.0 0.0 0.00 0.00 0.00 65 1017.5
20210728143749 66 61 0.0 0.0 0.00 0.00 0.00 66 1017.5
20210728143247 66 61 0.0 0.0 0.00 0.00 0.00 66 1017.5
20210728142745 66 61 0.0 0.0 0.00 0.00 0.00 67 1017.5
20210728142258 65 61 0.0 0.0 0.00 0.00 0.00 70 1017.5
20210728141739 66 355 0.0 0.0 0.00 0.00 0.00 67 1017.5
20210728141238 66 355 0.0 0.0 0.00 0.00 0.00 67 1017.5
20210728140736 65 355 0.0 0.0 0.00 0.00 0.00 69 1017.4
20210728140233 65 355 0.0 0.0 0.00 0.00 0.00 68 1017.3
20210728135734 65 355 0.0 0.0 0.00 0.00 0.00 69 1017.3
20210728135228 65 355 0.0 0.0 0.00 0.00 0.00 70 1017.4
20210728134726 65 355 0.0 0.0 0.00 0.00 0.00 70 1017.3
20210728134224 64 355 0.0 0.0 0.00 0.00 0.00 72 1017.3
20210728133722 63 355 0.0 0.0 0.00 0.00 0.00 72 1017.2
20210728133221 63 355 0.0 0.0 0.00 0.00 0.00 72 1017.3
20210728132715 63 355 0.0 0.0 0.00 0.00 0.00 72 1017.3
20210728132213 63 355 0.0 0.0 0.00 0.00 0.00 71 1017.3
20210728131711 63 355 0.0 0.0 0.00 0.00 0.00 71 1017.2
20210728131210 63 355 0.0 0.0 0.00 0.00 0.00 71 1017.3
20210728130708 62 355 0.0 0.0 0.00 0.00 0.00 73 1017.2
20210728130201 62 355 0.0 0.0 0.00 0.00 0.00 74 1017.2
20210728125702 62 355 0.0 0.0 0.00 0.00 0.00 75 1017.2
20210728125200 62 355 0.0 0.0 0.00 0.00 0.00 75 1017.2
20210728124658 62 355 0.0 0.0 0.00 0.00 0.00 75 1017.2
20210728124157 62 355 0.0 0.0 0.00 0.00 0.00 76 1017.0
20210728123647 62 355 0.0 0.0 0.00 0.00 0.00 77 1017.1
20210728123148 62 355 0.0 0.0 0.00 0.00 0.00 77 1017.0
20210728122647 62 355 0.0 0.0 0.00 0.00 0.00 78 1017.0
20210728122146 61 355 0.0 0.0 0.00 0.00 0.00 78 1017.0
20210728121646 61 355 0.0 0.0 0.00 0.00 0.00 78 1016.9
20210728121135 61 355 0.0 0.0 0.00 0.00 0.00 78 1016.9
20210728120633 62 355 0.0 0.0 0.00 0.00 0.00 78 1016.9
20210728120133 62 355 0.0 0.0 0.00 0.00 0.00 77 1016.8
20210728115633 62 355 0.0 0.0 0.00 0.00 0.00 77 1016.9
20210728115133 62 355 0.0 0.0 0.00 0.00 0.00 77 1016.9
20210728114631 62 355 0.0 0.0 0.00 0.00 0.00 76 1016.8
20210728114129 62 355 0.0 0.0 0.00 0.00 0.00 76 1016.9
20210728113628 63 355 0.0 0.0 0.00 0.00 0.00 76 1016.9
20210728113126 63 355 0.0 0.0 0.00 0.00 0.00 76 1016.9
20210728112624 63 355 0.0 0.0 0.00 0.00 0.00 75 1016.8
20210728112124 64 355 0.0 0.0 0.00 0.00 0.00 75 1016.9
20210728111616 63 355 0.0 0.0 0.00 0.00 0.00 76 1016.8
20210728111111 63 355 0.0 0.0 0.00 0.00 0.00 76 1016.8
20210728110611 62 355 0.0 0.0 0.00 0.00 0.00 74 1016.8
20210728110120 62 355 0.0 0.0 0.00 0.00 0.00 75 1016.8
20210728105612 62 355 0.0 0.0 0.00 0.00 0.00 74 1016.8
20210728105105 62 355 0.0 0.0 0.00 0.00 0.00 75 1016.8
20210728104603 63 355 0.0 0.0 0.00 0.00 0.00 75 1016.8
20210728104101 63 355 0.0 0.0 0.00 0.00 0.00 74 1016.8
20210728103559 63 355 0.0 0.0 0.00 0.00 0.00 75 1016.7
20210728103059 63 355 0.0 0.0 0.00 0.00 0.00 74 1016.7
20210728102550 63 355 0.0 0.0 0.00 0.00 0.00 75 1016.7
20210728102047 63 355 0.0 0.0 0.00 0.00 0.00 75 1016.6
20210728101548 64 355 0.0 0.0 0.00 0.00 0.00 75 1016.4
20210728101047 64 355 0.0 0.0 0.00 0.00 0.00 75 1016.4
20210728100547 64 355 0.0 0.0 0.00 0.00 0.00 75 1016.3
20210728100055 64 355 0.0 0.0 0.00 0.00 0.00 74 1016.2
20210728095539 64 355 0.0 0.0 0.00 0.00 0.00 75 1016.4
20210728095037 64 355 0.0 0.0 0.00 0.00 0.00 74 1016.4
20210728094535 64 355 0.0 0.0 0.00 0.00 0.00 73 1016.3
20210728094036 64 355 0.0 0.0 0.00 0.00 0.00 73 1016.2
20210728093525 65 355 0.0 0.0 0.00 0.00 0.00 72 1016.1
20210728093023 65 355 0.0 0.0 0.00 0.00 0.00 71 1016.0
20210728092523 65 355 0.0 0.0 0.00 0.00 0.00 69 1016.0
20210728092024 65 355 0.0 0.0 0.00 0.00 0.00 71 1016.1
20210728091523 65 355 0.0 0.0 0.00 0.00 0.00 71 1016.0
20210728091017 65 355 0.0 0.0 0.00 0.00 0.00 71 1015.9
20210728090515 65 355 0.0 0.0 0.00 0.00 0.00 70 1015.7
20210728090014 65 355 0.0 0.0 0.00 0.00 0.00 70 1015.9
20210728085512 65 355 0.0 0.0 0.00 0.00 0.00 69 1015.9
20210728085014 65 355 0.0 0.0 0.00 0.00 0.00 69 1015.9
20210728084506 65 355 0.0 0.0 0.00 0.00 0.00 69 1015.9
20210728084004 65 355 0.0 0.0 0.00 0.00 0.00 68 1015.9
20210728083502 66 355 0.0 0.0 0.00 0.00 0.00 68 1016.0
20210728083000 66 355 0.0 0.0 0.00 0.00 0.00 67 1015.9
20210728082500 66 355 0.0 0.0 0.00 0.00 0.00 67 1015.8
20210728081950 66 355 0.0 0.0 0.00 0.00 0.00 67 1015.8
20210728081449 66 355 0.0 0.0 0.00 0.00 0.00 67 1015.9
20210728080950 66 355 0.0 0.0 0.00 0.00 0.00 67 1015.8
20210728080448 66 355 0.0 0.0 0.00 0.00 0.00 66 1015.8
20210728075950 67 355 0.0 0.0 0.00 0.00 0.00 66 1015.7
20210728075441 67 355 0.0 0.0 0.00 0.00 0.00 66 1015.8
20210728074939 67 355 0.0 0.0 0.00 0.00 0.00 65 1015.7
20210728074438 67 355 0.0 0.0 0.00 0.00 0.00 65 1015.7
20210728073935 67 355 0.0 0.0 0.00 0.00 0.00 64 1015.7
20210728073435 67 355 0.0 0.0 0.00 0.00 0.00 64 1015.7
20210728072929 68 355 0.0 0.0 0.00 0.00 0.00 64 1015.7
20210728072428 68 355 0.0 0.0 0.00 0.00 0.00 63 1015.5
20210728071925 68 355 0.0 0.0 0.00 0.00 0.00 62 1015.4
20210728071423 69 355 0.0 0.0 0.00 0.00 0.00 62 1015.3
20210728070926 69 355 0.0 0.0 0.00 0.00 0.00 61 1015.4
20210728070422 69 355 0.0 0.0 0.00 0.00 0.00 61 1015.3
20210728065915 69 355 0.0 0.0 0.00 0.00 0.00 60 1015.2
20210728065414 70 355 0.0 0.0 0.00 0.00 0.00 60 1015.2
20210728064912 70 355 0.0 0.0 0.00 0.00 0.00 59 1015.2
20210728064412 70 355 0.0 0.0 0.00 0.00 0.00 59 1015.2
20210728063903 70 355 0.0 0.0 0.00 0.00 0.00 59 1015.2
20210728063404 71 355 0.0 0.0 0.00 0.00 0.00 58 1015.2
20210728062901 71 355 0.0 0.0 0.00 0.00 0.00 58 1015.1
20210728062400 71 355 0.0 0.0 0.00 0.00 0.00 58 1015.1
20210728061859 71 355 0.0 0.0 0.00 0.00 0.00 58 1015.1
20210728061349 71 355 0.0 0.0 0.00 0.00 0.00 57 1015.1